Tracking 25372 objects as of 23-Jan-2022
HD Live streaming from Space Station
objects crossing your sky now

NSAT 110

Track NSAT 110 now!
NSAT 110 is classified as:


NORAD ID: 26559
Int'l Code: 2000-060A
Perigee: 36,081.7 km
Apogee: 36,125.0 km
Inclination: 2.7 °
Period: 1,451.9 minutes
Semi major axis: 42474 km
RCS: 12.5892 m2 (large)
Launch date: October 6, 2000
Source: Japan (JPN)
Launch site: FRENCH GUIANA (FRGUI)

24 Ku-band; voice and video communications to Japan.
aabbcc
Your satellite tracking list
Your tracking list is empty




NASA's NSSDC Master Catalog

Two Line Element Set (TLE):
1 26559U 00060A   22022.41330633  .00000068  00000-0  00000-0 0  9998
2 26559   2.6881  88.3293 0005097 319.4131 298.1804  0.99177300 77888
Source of the keplerian elements: AFSPC